Temperature
15 16 16 16 20 21 21 22 22 21 21 20 20 21 22 22 22 21 17 17 16 16 16 16 16 16 16 16 16 16 16 16 16 16 16 16 16 16 15 15 15 15 15 15 15 15 15 15 15
15 15 15 17 20 21 21 22 21 21 20 18 18 19 20 20 18 17 16 16 16 16 16 16 16 16 16 16 16 16 16 16 16 16 16 16 16 15 15 15 15 15 15 15 15 15 15 15 14
14 15 16 19 20 21 22 21 21 19 18 18 18 18 19 18 16 15 16 16 16 16 16 16 16 16 16 16 16 16 16 16 16 16 16 16 16 15 15 15 15 15 15 15 15 15 15 14 14
14 14 16 18 19 20 21 20 19 19 18 17 18 18 17 15 15 15 16 16 16 15 15 15 16 16 16 16 16 15 15 15 15 16 15 15 15 15 15 15 15 15 15 15 15 14 14 14 14
13 16 17 18 19 20 19 18 18 19 18 17 17 18 17 15 15 15 15 15 15 15 15 15 15 15 15 15 15 15 15 15 15 15 15 15 15 15 15 15 15 15 15 14 14 14 14 14 14
14 16 18 18 19 19 18 17 17 18 18 17 17 17 16 14 14 15 15 15 15 15 15 15 15 15 15 15 15 15 15 15 15 15 15 15 15 15 15 15 14 14 14 14 14 14 14 14 14
14 16 17 18 18 18 18 16 17 17 17 17 16 17 16 14 14 14 14 14 14 14 14 14 15 15 15 15 15 15 15 15 15 15 15 15 15 15 15 14 14 14 14 14 14 14 14 14 13
12 15 16 17 17 17 16 15 15 16 16 14 15 16 16 14 14 14 14 14 14 14 14 14 14 14 14 14 14 14 14 14 14 15 15 15 14 14 14 14 14 14 14 14 14 14 13 13 13
11 14 15 16 16 17 15 14 13 13 13 13 13 14 13 13 13 13 13 13 14 14 14 14 14 14 14 14 14 14 14 14 14 14 14 14 14 14 14 14 14 14 14 14 14 13 13 13 13
12 14 15 16 16 15 14 14 13 13 13 13 13 12 12 12 12 12 13 13 13 13 13 13 13 13 13 13 13 13 13 13 13 14 14 14 14 13 13 14 14 14 14 14 13 13 13 13 12
11 13 13 13 13 13 13 13 12 13 14 14 13 12 12 11 12 12 12 12 13 13 13 13 13 13 13 13 13 13 13 13 13 13 13 13 13 13 13 13 13 13 13 13 13 13 12 12 12
11 11 11 11 11 11 12 12 12 13 13 12 12 11 11 11 11 11 12 12 12 13 13 13 13 13 13 13 13 13 13 13 13 13 13 13 13 13 13 13 13 13 13 13 13 12 12 12 12
10 10 9 9 9 10 10 11 12 12 11 11 11 11 11 11 11 11 11 12 12 12 13 13 13 13 13 13 13 13 13 13 13 13 13 13 13 13 13 13 13 13 13 12 12 12 12 12 12
10 9 9 9 9 10 10 11 11 11 10 11 10 10 10 10 10 10 11 11 12 12 12 12 12 12 12 12 12 12 13 13 12 12 12 12 12 13 13 12 12 12 12 12 12 12 12 12 12
8 9 10 10 10 10 10 11 12 11 10 10 10 10 10 10 10 10 11 11 11 11 12 12 12 12 12 12 12 12 12 12 12 12 12 12 12 12 12 12 12 12 12 12 12 12 11 11 11
9 10 10 10 10 9 10 12 13 10 10 10 10 10 10 10 10 10 10 10 11 11 11 11 12 12 12 12 12 12 12 12 12 12 12 12 12 12 12 12 12 12 11 11 11 11 11 11 11
9 10 10 10 10 10 10 11 12 10 10 10 10 10 9 9 9 9 10 10 10 11 11 11 11 11 11 11 11 11 12 12 12 12 11 11 11 11 11 11 11 11 11 11 11 11 11 11 11
9 10 10 10 10 9 10 11 11 10 10 10 10 10 9 9 9 9 9 10 10 10 10 10 10 11 11 11 11 11 11 11 11 11 11 11 11 11 11 11 11 11 11 11 11 11 10 10 10
9 9 9 10 9 9 9 10 11 11 10 10 10 9 9 9 9 9 9 9 9 10 10 10 10 10 10 10 10 10 11 11 11 11 11 11 11 11 11 11 11 11 10 10 10 10 10 10 10
8 8 9 9 8 8 9 10 11 11 10 10 10 9 9 9 9 9 9 9 9 9 9 10 10 10 10 10 10 10 10 10 10 10 10 10 10 10 10 10 10 10 10 10 10 10 10 10 9
8 8 8 8 8 8 8 10 11 11 10 9 9 9 9 9 9 9 8 9 9 9 9 9 9 10 10 10 10 10 10 10 10 10 10 10 10 10 10 10 10 10 10 10 9 9 9 9 9
8 8 8 7 8 8 8 10 11 12 11 10 9 9 9 9 8 8 8 8 8 9 9 9 9 9 9 9 9 9 9 9 9 9 9 9 9 9 9 9 9 9 9 9 9 9 9 9 9
7 7 7 7 7 7 8 8 11 11 10 11 10 9 9 8 8 8 8 8 8 8 9 9 9 9 9 9 9 9 9 9 9 9 9 9 9 9 9 9 9 9 9 9 9 9 8 8 8
6 7 7 6 7 7 8 8 10 11 11 11 10 9 8 8 8 8 8 8 8 8 8 8 8 8 8 8 9 9 9 9 9 8 8 9 9 9 8 8 8 8 8 8 8 8 8 8 8
6 7 8 8 8 9 8 8 10 11 10 10 9 9 8 7 7 7 7 7 7 7 8 8 8 8 8 8 8 8 8 8 8 8 8 8 8 8 8 8 8 8 8 8 8 7 7 7 7
6 7 8 9 9 10 8 8 10 9 8 8 7 7 7 7 7 7 7 7 7 7 7 7 7 8 8 8 8 8 8 8 8 8 8 8 8 8 8 8 8 7 7 7 7 7 7 7 7
6 7 6 7 7 8 9 9 9 9 8 8 7 7 7 6 6 7 7 7 7 7 7 7 7 7 7 7 7 7 7 7 7 7 7 7 7 7 7 7 7 7 7 7 7 6 6 6 6
5 5 6 7 7 9 10 10 10 9 8 8 8 7 6 6 6 6 6 6 7 7 7 7 7 7 7 7 7 7 7 7 7 7 7 7 7 7 7 7 6 6 6 6 6 6 6 6 6
4 4 5 6 7 8 10 10 9 8 8 8 7 6 5 5 5 6 6 6 6 6 6 6 6 7 7 6 6 6 7 7 6 6 6 6 6 6 6 6 6 6 6 6 6 6 5 5 5
4 5 5 6 6 6 8 9 8 7 7 6 6 5 5 5 5 5 5 6 6 6 6 6 6 6 6 6 6 6 6 6 6 6 6 6 6 6 6 6 6 6 5 5 5 5 5 5 5
Wind_Speed
8 5 2 3 5 6 13 9 6 6 5 4 4 4 5 5 3 1 3 4 5 7 11 13 13 12 12 12 11 12 12 12 13 13 13 12 12 12 12 12 12 12 12 12 13 12 12 12 11
6 3 3 4 7 12 12 10 10 8 4 3 4 4 4 4 0 2 2 3 5 8 10 12 13 13 12 12 12 12 12 11 12 13 12 12 11 11 12 12 11 11 11 11 12 12 11 11 11
3 2 3 5 9 14 12 7 8 6 4 4 4 3 3 2 1 1 1 4 6 8 10 12 13 12 12 12 12 12 12 11 11 12 12 12 12 11 11 11 11 11 11 11 11 11 11 11 10
2 3 4 8 15 13 9 6 5 7 5 4 3 3 2 1 1 1 2 5 7 9 10 13 13 12 12 12 13 12 12 12 11 12 12 12 12 12 11 11 10 10 10 10 10 11 11 10 10
2 4 7 11 16 11 7 5 6 7 6 5 5 4 3 1 3 2 3 6 7 8 10 13 12 12 12 12 12 13 12 12 10 11 11 11 11 11 11 10 10 10 10 10 10 10 10 10 10
4 5 10 16 16 11 8 6 7 7 6 5 5 6 4 1 2 2 3 5 6 7 9 12 13 12 12 12 12 12 12 11 11 10 11 11 10 10 10 10 10 10 9 9 10 10 9 9 9
5 6 12 15 13 12 8 6 7 7 8 7 5 5 4 2 1 1 3 5 6 7 8 10 12 12 12 12 12 12 11 11 11 10 10 11 10 10 10 9 9 9 8 8 9 9 9 8 8
3 5 11 13 13 12 7 5 5 7 6 3 5 6 5 3 1 2 3 4 5 6 7 9 11 11 11 12 12 12 11 11 10 9 10 11 10 10 10 9 8 8 8 8 8 8 8 8 7
3 7 13 14 12 9 6 6 4 3 5 5 5 5 4 1 2 3 3 4 5 6 6 7 9 10 11 11 12 12 11 10 10 9 10 10 9 9 8 8 8 8 8 8 8 8 8 8 7
5 10 14 9 8 7 7 7 6 5 7 8 7 5 2 2 3 5 6 7 7 7 7 6 8 9 10 9 11 10 10 10 9 8 9 8 7 6 7 9 8 8 7 7 7 7 7 6 5
6 9 9 8 6 6 8 8 7 9 10 11 10 8 5 5 6 6 7 7 8 8 7 7 7 9 9 8 8 7 7 8 7 7 7 7 7 7 6 7 7 7 6 6 6 5 4 3 3
5 7 8 7 6 7 9 8 9 12 11 8 9 8 8 9 9 8 8 8 8 8 8 7 7 8 9 8 7 7 6 6 6 6 7 7 5 5 6 5 5 5 4 4 4 3 4 3 3
8 6 7 7 6 7 8 11 11 13 11 9 9 10 11 11 10 9 8 9 9 9 8 8 7 7 8 8 6 6 6 6 6 6 6 7 5 5 5 4 4 4 4 4 3 3 3 3 3
5 5 6 7 7 7 9 11 11 12 9 9 10 11 12 12 11 10 9 9 10 9 9 8 8 8 8 8 7 6 6 6 6 6 6 7 6 5 5 4 4 4 4 4 3 3 2 2 2
4 5 7 8 8 6 6 11 14 12 10 11 11 11 12 12 12 12 10 10 9 9 9 8 8 8 8 8 8 6 6 6 6 5 6 6 6 6 5 4 4 4 4 4 3 3 2 2 2
4 6 7 6 7 6 8 13 9 7 9 11 11 11 11 12 12 12 11 10 9 8 8 7 6 7 8 7 7 6 6 6 5 6 5 5 6 6 5 4 4 4 4 4 3 3 2 2 2
5 8 10 7 6 6 10 12 8 7 9 11 12 11 11 11 12 11 11 10 9 8 7 7 6 6 7 6 6 6 5 5 5 5 5 5 5 6 6 4 4 5 4 3 3 3 3 2 2
7 8 9 10 5 8 12 14 11 9 10 12 11 11 12 12 12 10 10 9 8 7 7 7 6 5 5 5 5 5 5 4 4 4 5 5 5 5 5 4 5 5 4 4 4 3 3 2 2
8 10 11 10 7 8 13 15 14 11 11 12 12 12 13 12 10 9 8 8 7 7 8 7 7 6 5 5 6 6 5 5 4 4 5 5 5 4 4 4 5 5 4 4 4 3 4 2 2
8 10 10 7 5 7 11 15 15 13 13 13 13 13 13 11 9 8 8 8 8 8 8 7 7 6 6 5 5 4 4 3 3 4 4 5 5 4 3 4 4 4 4 5 5 4 3 2 2
8 10 9 8 7 7 9 12 12 9 10 11 12 12 12 12 11 9 9 8 8 8 8 7 7 6 6 6 4 4 3 3 3 4 3 4 4 4 4 4 4 4 4 4 4 5 4 3 3
8 7 8 7 6 5 5 8 10 9 10 10 10 11 11 11 11 10 9 9 9 8 7 7 6 5 5 6 7 7 6 5 4 4 4 4 4 4 4 4 4 4 4 4 4 4 4 4 4
6 5 6 7 6 7 7 8 9 7 10 10 9 9 10 10 11 10 9 9 8 6 6 6 6 5 5 6 7 8 6 5 4 4 5 4 3 4 4 4 4 4 4 4 4 4 4 3 4
3 2 3 4 5 7 9 8 8 7 9 8 7 7 8 9 10 9 7 6 5 5 6 5 6 6 5 5 6 7 8 6 6 6 5 4 3 3 4 4 3 4 4 4 3 3 4 3 3
3 2 2 3 4 6 4 7 8 6 7 7 6 5 6 7 7 8 7 6 6 6 6 6 7 6 6 6 6 6 7 8 8 7 6 5 4 4 4 4 4 4 4 4 4 4 3 4 4
5 5 3 4 5 4 4 8 6 4 4 4 5 5 4 5 6 7 7 7 6 6 6 6 7 6 6 6 6 6 7 6 5 6 5 5 4 4 5 5 5 4 5 5 4 3 3 3 3
4 4 3 3 4 5 5 6 6 5 4 4 4 4 4 4 4 5 5 5 6 6 5 6 6 6 6 6 5 6 6 6 5 5 5 4 4 4 5 5 5 4 4 5 4 4 4 3 4
1 2 2 4 3 5 5 5 4 3 4 4 4 4 4 3 2 3 4 4 4 5 5 5 6 6 6 6 5 5 6 6 5 4 5 4 5 4 5 5 4 4 4 5 5 4 4 4 4
2 2 2 3 4 4 5 4 1 4 4 5 4 4 4 3 3 2 2 3 3 3 4 5 5 6 5 5 5 5 6 6 5 5 5 4 4 4 5 5 5 5 4 5 5 5 5 5 4
3 4 4 4 4 4 5 5 1 3 4 5 5 4 4 3 3 3 2 2 2 2 3 4 4 5 4 5 5 5 5 5 5 5 5 4 5 4 4 5 5 4 4 4 5 5 5 5 5
Wind_Direction
325 313 264 220 212 222 230 219 209 191 193 194 183 195 205 203 208 121 67 141 146 154 156 157 152 147 144 141 136 133 128 130 127 124 123 123 124 124 121 119 117 115 113 110 107 104 100 98 96
319 298 217 214 224 223 225 218 210 202 170 152 179 201 200 209 321 58 99 145 152 153 157 157 151 149 147 144 139 134 133 130 131 128 127 126 125 127 125 121 119 117 115 112 109 107 104 101 98
297 260 217 208 224 228 222 201 204 188 171 177 181 208 221 196 134 80 75 155 154 152 157 152 150 151 150 148 143 138 136 134 134 133 131 129 128 127 126 123 120 118 116 114 112 109 107 103 100
247 201 213 223 225 229 235 202 182 176 191 205 201 181 174 58 12 24 117 153 152 153 156 150 151 151 151 150 147 143 139 138 134 138 136 133 130 127 125 123 121 119 119 118 116 111 106 102 99
237 206 209 223 230 228 230 217 191 193 196 198 208 211 201 80 30 80 132 151 152 151 154 152 154 154 152 149 146 144 143 143 138 140 139 136 133 131 128 127 123 122 122 121 119 114 109 105 104
205 207 217 226 226 223 222 213 206 216 212 209 211 216 212 113 58 107 144 154 152 149 152 151 152 152 152 148 147 144 145 145 141 139 140 137 136 136 133 131 126 122 124 126 124 120 114 109 107
218 210 226 231 231 226 219 212 216 220 222 219 218 215 205 178 62 120 155 154 149 149 153 152 158 157 153 149 148 146 146 146 142 138 142 137 135 136 133 131 130 126 125 128 128 127 122 115 111
236 214 224 226 228 230 213 208 231 231 231 231 229 222 217 213 181 167 158 157 155 156 159 158 161 162 161 159 150 147 146 142 138 137 139 136 135 134 131 129 126 126 123 121 122 123 124 120 116
214 220 225 222 222 223 201 211 217 252 231 233 242 260 272 192 186 172 175 176 171 170 170 167 166 164 165 165 158 153 148 141 136 137 137 143 146 144 140 129 124 124 122 121 120 120 120 121 117
207 225 231 228 229 226 214 226 222 219 231 239 242 252 246 195 199 193 194 193 189 184 181 174 174 170 167 166 164 164 159 155 154 152 155 156 150 145 141 129 123 124 125 124 119 122 133 139 128
210 229 240 241 242 237 224 231 228 230 238 239 238 233 221 217 219 217 210 202 197 189 184 183 178 175 171 168 167 166 163 162 159 155 163 159 151 146 144 143 139 137 138 132 126 140 139 137 128
220 236 245 246 249 239 235 234 236 236 246 255 247 230 222 220 221 223 218 210 203 193 189 186 184 182 178 172 171 168 165 163 158 159 164 163 157 158 156 155 155 155 151 147 149 143 137 133 127
230 239 251 250 254 247 244 241 244 247 253 253 242 224 222 225 227 229 227 216 208 201 191 188 186 187 183 176 173 171 169 165 160 160 170 170 166 166 162 160 160 163 159 161 158 150 146 138 123
230 239 255 258 253 251 244 253 247 245 243 239 232 228 226 227 228 228 228 221 212 206 197 191 191 194 189 183 178 176 171 162 160 166 173 176 172 170 167 164 164 165 165 165 165 159 152 137 127
235 249 257 252 247 240 241 250 239 240 233 234 234 234 231 231 230 228 226 224 217 209 199 192 193 197 194 189 181 176 170 164 164 168 175 176 177 176 173 171 171 167 164 163 158 153 147 138 135
228 231 243 243 238 232 223 245 239 230 229 235 234 233 233 230 231 231 229 225 219 212 204 192 190 198 196 192 183 176 172 167 169 171 174 178 183 180 178 177 174 168 167 166 161 167 167 166 165
217 234 246 259 243 232 226 248 251 238 239 241 237 233 229 231 232 232 230 222 216 208 203 191 188 197 195 188 182 174 170 168 170 170 174 182 188 186 183 182 175 172 173 174 173 179 183 181 178
239 249 252 257 254 240 239 250 260 246 243 244 241 235 229 231 232 230 230 220 212 206 202 193 191 196 189 181 173 169 168 169 167 172 177 179 185 188 185 181 179 176 178 181 183 180 177 186 196
247 253 263 270 272 255 248 255 262 253 244 244 240 237 233 231 233 228 226 220 209 203 201 194 193 195 184 184 179 178 180 178 176 179 179 180 185 187 189 180 180 182 188 191 186 182 180 184 193
237 252 266 277 269 258 258 263 264 252 240 240 239 237 233 234 232 227 219 213 208 205 199 197 197 196 192 191 188 183 175 174 173 172 180 183 180 183 188 186 184 186 187 193 190 192 195 191 213
241 241 259 274 286 262 264 263 249 243 234 236 240 240 232 228 228 224 218 210 208 204 199 199 201 200 196 184 170 160 152 156 177 181 184 185 184 186 186 200 194 189 187 193 196 199 206 199 207
248 244 256 264 262 268 252 267 256 250 240 237 240 236 232 226 227 225 220 213 212 204 195 198 197 197 194 186 181 178 185 192 198 191 186 185 188 189 189 193 198 195 198 198 198 206 214 206 207
242 264 250 253 256 267 252 258 263 244 246 247 242 235 232 229 225 222 219 218 213 205 195 198 194 190 192 194 192 190 194 199 190 185 186 189 190 192 191 188 197 194 200 207 205 209 215 217 220
234 249 236 230 238 255 245 242 267 239 241 246 245 235 231 226 228 224 218 216 207 202 200 194 187 189 193 197 198 199 197 194 190 191 192 194 197 202 197 191 197 199 199 206 201 206 210 214 222
208 212 234 222 226 250 228 239 257 248 241 248 256 250 238 229 225 218 214 211 206 198 191 187 187 193 196 198 203 205 203 200 200 199 199 195 200 211 208 196 200 205 199 195 190 199 212 217 220
213 215 225 247 256 266 227 244 261 263 272 275 275 277 266 236 228 219 212 207 202 196 191 190 192 197 201 202 207 207 204 204 205 205 205 208 209 213 212 204 200 204 196 189 189 195 209 222 225
196 211 248 253 273 266 254 262 280 293 303 294 284 281 272 253 235 222 214 209 203 203 202 199 201 205 206 205 205 210 205 209 206 202 205 211 211 206 203 205 201 201 197 192 190 199 207 216 228
237 185 197 209 243 253 263 262 276 302 295 294 284 282 287 289 265 229 219 218 216 212 209 207 208 207 209 208 207 212 206 206 203 201 203 204 206 203 198 198 202 203 204 199 197 201 207 211 225
172 182 214 218 256 260 266 267 239 264 293 294 291 292 291 292 287 263 235 224 208 204 208 207 208 205 203 205 207 208 205 200 199 202 204 204 202 199 199 199 202 207 211 204 206 205 205 212 221
219 214 204 221 243 248 259 273 17 292 310 315 306 304 297 296 293 286 245 227 204 204 214 212 207 205 203 201 200 203 202 195 195 200 200 199 202 203 203 202 201 205 207 207 212 211 210 212 219
Height
1517 1518 1520 1522 1521 1516 1509 1505 1507 1510 1512 1514 1515 1515 1513 1513 1515 1520 1520 1518 1519 1521 1522 1523 1525 1527 1528 1530 1531 1532 1533 1534 1534 1535 1536 1537 1537 1538 1538 1539 1539 1539 1540 1540 1540 1540 1540 1539 1539
1517 1518 1521 1521 1515 1511 1506 1503 1507 1508 1512 1515 1516 1516 1515 1516 1518 1518 1517 1517 1518 1520 1522 1524 1525 1527 1528 1530 1531 1532 1533 1534 1535 1535 1536 1537 1538 1538 1539 1539 1540 1540 1540 1540 1540 1540 1540 1540 1540
1516 1518 1521 1516 1509 1502 1500 1504 1506 1511 1514 1515 1515 1516 1516 1517 1518 1518 1517 1517 1518 1520 1522 1524 1525 1526 1528 1529 1531 1532 1533 1533 1535 1535 1536 1537 1538 1539 1539 1540 1540 1540 1541 1541 1541 1541 1541 1541 1540
1516 1519 1519 1514 1505 1500 1500 1505 1509 1511 1514 1515 1515 1515 1517 1518 1518 1517 1516 1517 1518 1520 1522 1523 1525 1526 1527 1529 1530 1532 1533 1534 1534 1535 1536 1537 1538 1539 1539 1540 1540 1541 1541 1541 1541 1541 1541 1541 1541
1516 1516 1513 1509 1502 1502 1505 1508 1510 1510 1512 1514 1515 1514 1516 1517 1516 1516 1516 1517 1518 1520 1521 1522 1524 1526 1527 1528 1530 1531 1532 1533 1534 1535 1536 1537 1538 1538 1539 1540 1540 1541 1541 1541 1541 1541 1542 1541 1541
1515 1512 1507 1502 1499 1502 1506 1510 1511 1510 1511 1513 1514 1514 1515 1516 1515 1515 1516 1517 1518 1519 1521 1522 1524 1525 1527 1528 1530 1531 1532 1533 1534 1535 1536 1537 1537 1538 1539 1540 1540 1540 1541 1541 1541 1541 1542 1542 1542
1513 1508 1502 1498 1498 1501 1506 1510 1510 1510 1510 1512 1513 1513 1513 1514 1514 1515 1515 1516 1518 1519 1520 1521 1523 1525 1526 1528 1529 1530 1532 1533 1534 1534 1535 1536 1537 1538 1538 1539 1540 1540 1540 1541 1541 1541 1541 1542 1542
1511 1509 1502 1499 1499 1500 1506 1509 1510 1510 1510 1512 1513 1511 1511 1513 1513 1514 1514 1516 1517 1518 1519 1520 1522 1524 1525 1527 1529 1530 1531 1532 1533 1534 1535 1536 1537 1538 1538 1539 1539 1540 1540 1540 1541 1541 1541 1541 1541
1510 1509 1499 1496 1498 1500 1506 1508 1510 1510 1511 1511 1511 1511 1511 1511 1511 1512 1513 1514 1515 1516 1518 1519 1521 1522 1524 1526 1527 1529 1530 1531 1532 1533 1534 1535 1536 1537 1538 1538 1539 1539 1540 1540 1540 1541 1541 1541 1541
1509 1503 1496 1498 1499 1501 1505 1506 1508 1509 1508 1508 1509 1509 1509 1508 1509 1510 1511 1512 1513 1514 1516 1517 1519 1521 1523 1525 1526 1528 1529 1530 1531 1532 1533 1534 1535 1536 1537 1537 1538 1538 1539 1539 1540 1540 1540 1541 1541
1506 1502 1500 1502 1503 1504 1504 1506 1507 1506 1504 1505 1505 1506 1506 1506 1507 1508 1509 1510 1511 1512 1513 1515 1517 1519 1521 1522 1524 1526 1527 1528 1529 1530 1531 1533 1534 1535 1536 1536 1537 1538 1538 1539 1539 1539 1539 1540 1540
1505 1504 1504 1503 1504 1504 1503 1504 1504 1503 1501 1503 1503 1504 1504 1504 1504 1505 1506 1507 1508 1509 1510 1512 1514 1516 1519 1520 1522 1524 1525 1526 1527 1528 1529 1531 1532 1533 1534 1535 1536 1537 1537 1538 1538 1538 1538 1539 1539
1504 1504 1504 1503 1503 1503 1503 1502 1501 1499 1499 1500 1500 1501 1501 1501 1502 1503 1504 1505 1505 1506 1507 1509 1512 1514 1516 1518 1520 1521 1523 1524 1525 1526 1528 1529 1530 1532 1533 1534 1534 1535 1536 1536 1537 1537 1537 1537 1538
1503 1503 1503 1502 1501 1501 1500 1499 1499 1494 1496 1497 1497 1497 1498 1498 1499 1500 1500 1501 1502 1503 1504 1506 1509 1511 1513 1515 1517 1518 1520 1521 1524 1525 1526 1527 1529 1530 1531 1532 1533 1534 1534 1535 1536 1536 1536 1535 1536
1504 1503 1500 1499 1499 1498 1499 1494 1491 1491 1493 1493 1493 1493 1494 1494 1495 1496 1497 1498 1499 1500 1502 1503 1506 1508 1510 1512 1514 1516 1518 1519 1521 1523 1524 1525 1527 1528 1529 1530 1531 1532 1532 1533 1534 1534 1534 1534 1534
1502 1499 1495 1494 1496 1496 1498 1486 1485 1488 1489 1488 1489 1489 1490 1490 1492 1493 1494 1495 1496 1497 1499 1500 1503 1505 1507 1509 1511 1513 1515 1517 1519 1521 1522 1523 1525 1526 1527 1528 1529 1529 1530 1531 1531 1532 1532 1532 1533
1496 1493 1490 1491 1492 1493 1492 1483 1483 1485 1485 1484 1485 1485 1486 1487 1488 1489 1490 1491 1492 1494 1495 1497 1499 1502 1504 1506 1508 1510 1512 1514 1517 1518 1520 1521 1522 1524 1525 1526 1527 1527 1528 1529 1530 1530 1531 1530 1531
1492 1489 1488 1487 1489 1490 1487 1481 1480 1482 1482 1480 1481 1481 1482 1482 1483 1485 1486 1487 1488 1490 1492 1494 1496 1499 1501 1503 1505 1507 1509 1511 1513 1515 1517 1518 1519 1521 1522 1523 1524 1525 1526 1527 1527 1528 1528 1528 1528
1493 1492 1488 1486 1489 1488 1483 1479 1476 1477 1478 1476 1476 1477 1477 1478 1480 1481 1482 1484 1485 1487 1489 1490 1493 1495 1497 1499 1501 1504 1506 1508 1511 1513 1514 1515 1517 1518 1519 1521 1522 1523 1523 1524 1525 1525 1526 1526 1526
1493 1491 1487 1486 1488 1488 1481 1475 1471 1471 1471 1471 1472 1472 1472 1474 1475 1476 1478 1480 1481 1483 1485 1487 1489 1491 1493 1496 1498 1500 1503 1506 1508 1509 1511 1513 1514 1515 1516 1518 1519 1520 1521 1522 1522 1523 1523 1523 1524
1490 1488 1486 1487 1487 1486 1483 1470 1463 1463 1465 1467 1467 1467 1468 1469 1470 1472 1474 1475 1477 1479 1481 1483 1485 1487 1489 1493 1495 1498 1500 1503 1505 1506 1508 1509 1510 1511 1513 1514 1515 1516 1517 1518 1519 1520 1520 1520 1521
1486 1486 1487 1487 1486 1481 1482 1469 1457 1457 1459 1460 1461 1462 1463 1465 1467 1469 1470 1471 1473 1475 1478 1480 1482 1484 1487 1490 1492 1494 1496 1498 1500 1502 1504 1505 1507 1508 1510 1511 1512 1513 1514 1515 1515 1516 1516 1517 1517
1485 1486 1487 1486 1485 1484 1480 1476 1455 1456 1454 1453 1456 1458 1459 1461 1463 1464 1466 1468 1469 1471 1474 1476 1478 1481 1484 1486 1488 1491 1493 1495 1497 1499 1500 1502 1503 1504 1506 1507 1508 1510 1510 1511 1511 1512 1512 1513 1514
1486 1486 1486 1486 1484 1481 1473 1472 1453 1450 1450 1450 1453 1454 1456 1458 1459 1461 1463 1464 1466 1468 1471 1473 1475 1478 1480 1483 1485 1487 1489 1491 1494 1495 1496 1498 1499 1500 1502 1503 1504 1506 1506 1507 1508 1509 1509 1510 1511
1485 1483 1478 1475 1475 1467 1469 1468 1454 1448 1450 1451 1451 1452 1453 1455 1456 1457 1459 1460 1462 1465 1467 1470 1472 1475 1476 1478 1481 1483 1485 1488 1489 1491 1492 1494 1495 1496 1497 1499 1500 1501 1502 1503 1504 1505 1505 1506 1507
1483 1481 1478 1472 1464 1458 1468 1462 1448 1450 1450 1451 1451 1452 1452 1453 1453 1454 1456 1457 1459 1461 1464 1467 1469 1471 1474 1475 1477 1479 1482 1484 1486 1487 1489 1490 1491 1492 1494 1495 1496 1497 1498 1499 1500 1500 1501 1502 1503
1482 1480 1482 1479 1475 1468 1455 1451 1448 1447 1448 1449 1450 1450 1450 1451 1451 1452 1453 1455 1457 1458 1461 1463 1466 1468 1470 1471 1473 1476 1478 1480 1481 1483 1485 1486 1487 1489 1490 1491 1492 1493 1494 1495 1496 1497 1497 1498 1498
1484 1483 1483 1478 1471 1456 1447 1447 1447 1446 1446 1448 1449 1449 1450 1450 1450 1450 1451 1452 1454 1456 1458 1460 1463 1464 1466 1468 1470 1472 1474 1476 1477 1479 1481 1482 1483 1485 1486 1487 1488 1489 1490 1491 1492 1492 1493 1494 1494
1485 1485 1482 1476 1473 1460 1449 1445 1448 1449 1448 1448 1449 1449 1449 1449 1449 1449 1450 1451 1452 1453 1455 1457 1459 1461 1462 1464 1466 1468 1470 1472 1473 1475 1477 1478 1479 1481 1482 1483 1484 1485 1485 1486 1487 1488 1488 1489 1490
1482 1481 1481 1475 1473 1469 1456 1450 1450 1451 1450 1450 1449 1449 1449 1448 1448 1448 1448 1449 1450 1451 1453 1454 1455 1457 1459 1461 1462 1464 1466 1468 1470 1471 1473 1474 1476 1477 1478 1479 1480 1481 1481 1482 1483 1483 1484 1485 1485